Regional Weather Roundup
Issued by NWS

Home | Current Version | Previous Version | Text Only | Print | Product List | Glossary On
Versions: 1 2 3 4 5 6 7 8 9 10 11 12 13 14 15 16 17 18 19 20 21 22 23 24 25 26 27 28 29 30 31 32 33 34 35 36 37 38 39 40 41 42 43 44 45 46 47 48 49 50
000
ASUS43 KBIS 281910
RWRND

NORTH DAKOTA REGIONAL WEATHER ROUNDUP
NATIONAL WEATHER SERVICE BISMARCK ND
200 PM CDT THU MAY 28 2015

NOTE: "FAIR" INDICATES FEW OR NO CLOUDS BELOW 12,000 FEET WITH NO
SIGNIFICANT WEATHER AND/OR OBSTRUCTIONS TO VISIBILITY.


NDZ001>003-009>011-017-282000-
NORTHWEST NORTH DAKOTA

CITY           SKY/WX    TMP DP  RH WIND       PRES   REMARKS
WILLISTON      PTSUNNY   72  55  55 N9        29.89S
MINOT          CLOUDY    68  56  65 NW13      29.86S
MINOT AFB      PTSUNNY   68  68 100 N9        29.86R
$$

NDZ018>021-031>035-040>046-282000-
SOUTHWEST NORTH DAKOTA

CITY           SKY/WX    TMP DP  RH WIND       PRES   REMARKS
BISMARCK       PTSUNNY   77  56  48 MISG      29.87S
DICKINSON      PTSUNNY   72  53  51 VRB5      29.89R
GARRISON         N/A     73  58  59 N14       29.86S
HETTINGER ARPT PTSUNNY   71  54  54 N6        29.92S
$$

NDZ004>008-012>016-024-026-027-054-282000-
NORTHEAST NORTH DAKOTA

CITY           SKY/WX    TMP DP  RH WIND       PRES   REMARKS
GRAND FORKS    PTSUNNY   74  61  63 S12G20    29.83F
GRND FRKS AFB  CLOUDY    74  62  67 S13       29.83F
DEVILS LAKE    PTSUNNY   73  59  60 SW6       29.83S
$$

NDZ022-023-025-028>030-036>039-047>053-282000-
SOUTHEAST NORTH DAKOTA

CITY           SKY/WX    TMP DP  RH WIND       PRES   REMARKS
FARGO          MOSUNNY   84  62  47 SW20G33   29.83F
JAMESTOWN      CLOUDY    76  61  59 SW15      29.82F THUNDER
$$



USA.gov is the U.S. government's official web portal to all federal, state and local government web resources and services.